FENGYUN 1C DEB

Satellite information

Favourite Embed

Satellite Type and Status

DEBRISIN ORBIT

Key statistics

Satellite FENGYUN 1C DEB at a glance.

Uptime

9715

Days in orbit

Revolutions

≈ 14.5

Per day

Orbit

SSO

Sun Synchronous Orbit

Inclination

98.8

Latest

Satellite identification and parameters

Extended collection of information and parameters for FENGYUN 1C DEB.

Object identification

Identified? True

Debris? True

Object name: FENGYUN 1C DEB

International designator: 1999-025CSX

Object number (NORAD): 32153

Object ID (CCSDS): 32153

Country: PEOPLES REPUBLIC OF CHINA (PRC)

Current information (Y/N): Y

RCS size: SMALL

Orbital parameters

Period: 99.398 minutes

Inclination: 98.7689 deg

SMA: 7107.967 km

Apoapsis: 877.035 km

Periapsis: 582.629 km

RAAN: 189.7881 deg

Eccentricy: 0.02070958

Argument of periapsis: 220.9 deg

Mean anomaly: 137.6497 deg

Mean motion: 14.48720534 rev/day

Mean motion (dot): 0.00002449 rev/day2

B* drag term: 0.00050681927 1/REarth

Two-line elements (TLE)

Creation date: Dec. 13, 2025, 4:32 a.m.

Reference frame: TEME

Reference center: EARTH

Epoch: Dec. 12, 2025, 8:27 p.m. UTC

TLE line 0: 0 FENGYUN 1C DEB

TLE line 1: 1 32153U 99025CSX 25346.85235774 .00002449 00000-0 50682-3 0 9993

TLE line 2: 2 32153 98.7689 189.7881 0207096 220.9000 137.6497 14.48720534972252

Live tracking on map

Real-time ground track for satellite FENGYUN 1C DEB.

In-orbit conjunctions

A list of the most updated potential collisions computed for object FENGYUN 1C DEB.

Target Orbit TCA Probability of collision Miss distance Type
CZ-6A DEB SSO 2025-09-23 10:11:43 0.0001767253 337.0 (m) DEBRIS
CZ-6A DEB LEO 2025-01-04 01:31:45 0.0001117301 446.0 (m) DEBRIS

Associated space launch

Chinese polar orbiting meteorological satellite

FENGYUN 1C DEB was lifted into orbit during the mission ‘Long March 4B | Feng Yun 1C’, on board a Long March 4B space rocket.

The launch took place on May 10, 1999, 1:33 a.m. from Launch Complex 7.

For more information about the launch, click the button.

Launch to space Long March 4B | Feng Yun 1C
Long March 4B | Feng Yun 1C

Agency: N/A

Status: Launch Successful

Launch date: May 10, 1999, 1:33 a.m. UTC

Rocket: Long March 4B

Launch pad: Launch Complex 7

Location: Taiyuan Satellite Launch Center, People's Republic of China

...

Latest news about this satellite

There are no fresh news available about this satellite. Check back as we update our databases every day.


Newsletter sign-up

Weekly statistics, charts and insights to help you stay on top of the space industry.